Regional Weather Roundup
Issued by NWS Newport/Morehead, NC

Current Version | Previous Version | Text Only | Print | Product List | Glossary On
Versions: 1 2 3 4 5 6 7 8 9 10 11 12 13 14 15 16 17 18 19 20 21 22 23 24 25 26 27 28 29 30 31 32 33 34 35 36 37 38 39 40 41 42 43 44 45 46 47 48 49 50
000
ASUS42 KMHX 062112
RWRMHX
WEATHER ROUNDUP FOR EASTERN NORTH CAROLINA
NATIONAL WEATHER SERVICE NEWPORT/MOREHEAD CITY NC
400 PM EST TUE DEC 06 2016

NOTE: "FAIR" INDICATES FEW OR NO CLOUDS BELOW 12,000 FEET
WITH NO SIGNIFICANT WEATHER AND/OR OBSTRUCTIONS TO VISIBILITY

NCZ015>017-031-032-045>047-102-103-062200-
NORTH COAST

CITY           SKY/WX    TMP DP  RH WIND       PRES   REMARKS
EDENTON        DRZL/FOG  61  59  94 E8        29.61F VSB 1
ELIZABETH CITY LGT RAIN  60  59  96 E16G23    29.62F VSB 1
KITTY HAWK     CLOUDY    60  60 100 E10G16    29.60F FOG
MANTEO         CLOUDY    63  63 100 SE16G22   29.61F

$$

NCZ045>047-081-094-103-104-062200-
CENTRAL COAST

CITY           SKY/WX    TMP DP  RH WIND       PRES   REMARKS
FRISCO         CLOUDY    66  62  87 E22G29    29.60F FOG

$$

NCZ095-097-098-100-101-062200-
SOUTHERN COAST

CITY           SKY/WX    TMP DP  RH WIND       PRES   REMARKS
BEAUFORT       CLOUDY    69  67  93 S7        29.61F FOG
CEDAR ISLAND   NOT AVBL
JACKSONVILLE   CLOUDY    66  65  96 SE6       29.62S
PINEY ISLAND   PTCLDY   N/A N/A N/A SE14      29.60S
WILMINGTON     CLOUDY    65  65 100 SW3       29.63R FOG


$$

NCZ011>013-027>030-043-044-078>080-089-090>093-098-062200-
COASTAL PLAIN

CITY           SKY/WX    TMP DP  RH WIND       PRES   REMARKS
AHOSKIE        HVY RAIN  54  54  99 N3        29.62F
CLINTON        RAIN      53  53 100 CALM      29.65F VSB 1
ELIZABETHTOWN  FOG       55  55 100 W3        29.66R VSB 3/4
GOLDSBORO      NOT AVBL
GREENVILLE     LGT RAIN  59  57  94 CALM      29.66R
HAVELOCK       CLOUDY    69  65  86 SE10      29.62R
KENANSVILLE    FOG       54  54 100 CALM      29.64F VSB 1/4
KINSTON        CLOUDY    55  55 100 CALM      29.65R FOG
NEW BERN       CLOUDY    67  63  87 SE6       29.62R
RICHLANDS      CLOUDY    66  63  90 W6        29.64R
ROCKY MOUNT    CLOUDY    50  50 100 W7        29.66R FOG
WASHINGTON     CLOUDY    62  62  99 S3        29.61R
WHITEVILLE     CLOUDY    59  58  96 CALM      29.66R FOG

$$

AMZ130-135-150-152-154-156-158-170-250-252-270-ANZ085-086-088-633-658-670-062200-
MARINE OBSERVATIONS

STATION/POSITION TIME  TEMP    WIND        PRES    WAVE   SWELL
                       AIR SEA DIR/SP/G            HT/PER HT/PER
                 (UTC) (F)     (DEG/KT/KT) (MB)    (FT/S) (FT/S)
CHESAPEAKE LIGHT NOT AVBL
64 E VA BEACH    2050   63 60  110/ 25/ 33 1003.0    9/ 7   2/11
DUCK             2042   59 54  100/ 22/ 25 1002.1
2 E DUCK         NOT AVBL
OREGON INLET     2042   63 57  110/ 16/ 22 1001.7
13E OREGON INLT  NOT AVBL
HATTERAS CG      2042   66 60  100/ 15/ 21 1002.1
DIAMOND BUOY     2050   71 76   80/ 23/ 29 1002.0   10/ 9
CAPE LOOKOUT     2100   66     210/  7/ 10 1002.4
BEAUFORT LAB     2042   65 56  120/  8/ 10 1001.7
30 SE NEW RVR IN 2008   63 71  250/ 16/ 21 1003.4
30 SE NEW RVR IN NOT AVBL
27 SE WRIGHTSVLE 2008   68 69  240/ 12/ 17 1003.0
5 SE WRIGHTSVLE  2008   62 62  210/  6/ 10 1002.8
225 S CAPE HAT   2050   71 74  270/ 14/ 16 1010.5    8/ 7   3/10
41 SE CHARLESTON 2050   75 74  220/ 21/ 25 1004.2    8/ 8   3/15

$$




USA.gov is the U.S. government's official web portal to all federal, state and local government web resources and services.